Overview Statistics Trail Chart Weather Telemetry Raw packets
 

This is the latest recevied weather packets stored in our database for station/object K8RRT. If no packets are shown the sender has not sent any weather packets the latest 10 day(s).

<< 60 61 62 63 64 65 66 >>
Time Temp. Humidity Pressure Rain* Wind** Luminosity Snow
1788208097 33.33° C 62% 1014.8 hPa 0 mm - 418 W/m² -
1788207792 32.78° C 65% 1014.6 hPa 0 mm - 511 W/m² -
1788207487 32.78° C 66% 1014.8 hPa 0 mm - 484 W/m² -
1788207185 31.11° C 70% 1014.9 hPa 0 mm - 587 W/m² -
1788206882 31.67° C 72% 1014.9 hPa 0 mm - 167 W/m² -
1788206576 31.67° C 67% 1014.7 hPa 0 mm - 216 W/m² -
1788206272 31.67° C 69% 1014.8 hPa 0 mm - 509 W/m² -
1788205968 31.11° C 69% 1015.2 hPa 0 mm - 577 W/m² -
1788205662 31.11° C 69% 1015 hPa 0 mm - 156 W/m² -
1788205358 31.11° C 69% 1015.1 hPa 0 mm - 162 W/m² -
1788205051 31.11° C 70% 1015.2 hPa 0 mm - 163 W/m² -
1788204747 31.11° C 70% 1015.2 hPa 0 mm - 150 W/m² -
1788204442 31.67° C 68% 1015.2 hPa 0 mm - 158 W/m² -
1788204137 31.67° C 73% 1015.2 hPa 0 mm - 586 W/m² -
1788203833 31.67° C 68% 1015.2 hPa 0 mm - 186 W/m² -
1788203529 31.67° C 69% 1015.6 hPa 0 mm - 151 W/m² -
1788203224 31.67° C 67% 1015.6 hPa 0 mm - 690 W/m² -
1788202923 31.67° C 69% 1015.6 hPa 0 mm - 654 W/m² -
1788202619 31.67° C 73% 1015.7 hPa 0 mm - 655 W/m² -
1788202314 31.11° C 69% 1015.7 hPa 0 mm - 602 W/m² -
1788202013 31.67° C 70% 1015.6 hPa 0 mm - 644 W/m² -
1788201710 31.67° C 73% 1015.8 hPa 0 mm - 668 W/m² -
1788201408 31.11° C 73% 1015.7 hPa 0 mm - 631 W/m² -
1788201108 31.67° C 72% 1015.9 hPa 0 mm - 677 W/m² -
1788200807 31.67° C 75% 1015.9 hPa 0 mm - 645 W/m² -

* Rain latest hour (hover to see other rain measurements)
** Current wind speed in m/s (hover to see current wind gust speed)